Location: Newark
(43.4545°N, 5.8521°W)
Time: 03:23:03
(UTC+00:00)

ISS - Pass Details

Date: 24 November 2019
Orbit: 411 x 421 km, 51.6° (Epoch: 09 December)

Event Time Altitude Azimuth Distance (km) Brightness Sun altitude
Rises 17:20:58 0° 209° (SSW) 2,339 1.0 -5.6°
Reaches altitude 10° 17:23:13 10° 197° (SSW) 1,483 -0.4 -6.0°
Maximum altitude 17:26:06 27° 137° (SE) 833 -2.4 -6.4°
Drops below altitude 10° 17:29:00 10° 77° (ENE) 1,497 -1.6 -6.9°
Enters shadow 17:29:14 - 75° (ENE) 1,578 -1.5 -7.0°
